SCP
0 0 0 0 0 0 0 0 0 0 0 0 0 0 0 0 0 0 0 0 0 0 0 0 0 0 0 0 0 0 0 0 0 0 0 0 0 0 0 0 0 0 0 0 0 0 0
0 0 0 0 0 0 0 0 0 0 0 0 0 0 0 0 0 0 0 0 0 0 0 0 0 -0 0 0 0 0 0 0 0 0 0 0 0 0 0 0 0 0 0 0 0 0 0
0 0 0 0 0 0 0 0 0 0 0 0 0 0 0 0 0 0 0 0 0 0 0 0 -0 -0 -0 0 0 0 0 0 0 0 0 0 0 0 0 0 0 0 0 0 0 0 0
0 0 0 0 0 0 0 0 0 0 0 0 0 0 0 0 0 0 0 0 0 0 0 -0 -0 -0 0 0 0 0 0 0 0 0 0 0 0 0 0 0 0 0 0 -0 0 0 0
0 0 0 0 0 0 0 0 0 0 0 0 0 0 0 0 0 0 0 0 0 0 0 -0 0 0 0 0 0 0 0 0 0 0 0 -0 -0 -0 0 0 0 0 0 0 0 0 0
0 0 0 0 0 0 0 0 0 0 0 0 0 0 0 -0 -0 0 0 0 -0 0 -0 -0 0 0 0 0 0 0 0 -0 -0 0 0 0 0 -0 0 0 0 0 0 0 0 0 0
0 0 0 0 0 0 0 0 0 0 0 0 0 0 0 0 0 0 0 0 0 0 0 -0 0 0 0 0 0 0 0 -0 0 -0 -0 0 -0 0 0 0 0 0 0 0 0 0 0
0 0 0 0 0 0 0 0 0 0 0 0 0 0 0 0 0 0 0 0 0 0 0 0 0 0 0 0 0 -0 -0 0 0 0 0 0 0 0 0 0 0 0 0 0 0 0 0
0 0 0 0 0 0 0 0 0 0 0 0 0 0 0 0 0 0 0 0 0 0 0 0 0 0 0 0 -0 -0 -0 0 0 0 0 0 0 0 0 0 0 0 0 0 0 0 0
0 0 0 0 0 0 0 0 0 0 0 0 0 0 0 0 0 0 0 0 0 0 0 0 0 0 -0 0 0 -0 -0 0 0 0 0 0 0 0 0 0 0 0 0 0 0 0 0
0 0 0 0 0 0 0 0 0 0 0 0 0 0 0 0 0 0 0 0 0 0 0 0 0 0 -0 0 0 -0 -0 0 -0 0 0 0 0 0 0 0 0 0 0 0 0 0 0
0 0 0 0 0 0 0 0 0 0 0 0 0 0 0 0 0 0 0 0 0 0 0 0 0 0 0 -0 -0 -0 0 0 0 0 0 0 0 0 0 0 0 0 0 0 0 0 0
0 0 0 0 0 0 0 0 0 0 0 0 0 0 0 0 0 0 0 0 0 0 0 0 0 0 -0 -0 -0 0 -0 -0 -0 -0 0 0 0 0 0 0 0 0 0 0 0 0 0
0 0 0 0 0 0 0 0 0 0 0 0 0 0 0 0 0 0 0 0 0 0 0 0 0 -0 0 0 0 -0 0 -0 -0 0 0 0 0 0 0 0 0 0 0 0 0 -0 0
0 0 0 0 0 0 0 0 0 0 0 0 0 0 0 0 0 0 0 0 0 0 0 0 -0 0 0 0 0 0 -0 0 0 0 0 0 0 0 0 0 0 -0 0 -0 0 0 0
0 0 0 0 0 0 0 0 0 0 0 0 0 0 0 0 0 0 0 0 0 0 0 0 0 0 0 0 0 0 0 0 0 0 0 0 0 0 0 -0 0 -0 -0 0 0 0 0
0 0 0 0 0 0 0 0 0 0 0 0 0 0 0 0 0 0 0 0 -0 0 0 0 0 0 0 0 0 0 0 0 0 0 -0 0 0 0 -0 -0 -0 0 0 0 -0 0 0
0 0 0 0 0 0 0 0 0 0 0 0 0 0 0 0 0 0 0 0 0 -0 0 0 0 -0 0 0 0 0 0 0 0 -0 0 0 0 0 0 0 -0 -0 -0 -0 0 0 0
0 0 0 0 0 0 0 0 0 0 0 0 0 0 0 0 0 0 -0 -0 -0 0 0 0 0 0 0 0 0 0 0 0 0 0 -0 0 0 0 0 0 -0 -0 0 0 0 0 -0
0 0 0 0 0 0 0 0 0 0 0 0 0 0 0 0 0 -0 -0 -0 -0 -0 -0 -0 -0 0 0 0 0 0 0 0 0 0 0 0 0 0 -0 -0 -0 -0 -0 -0 0 -0 -0
0 0 0 0 0 0 0 0 0 0 0 0 0 0 0 0 0 0 0 -0 -0 0 0 0 0 0 0 0 0 0 0 0 0 0 0 0 0 -0 -0 -0 -0 -0 -0 -0 -0 -0 -0
0 0 0 0 0 0 0 0 0 0 0 0 0 0 0 0 0 -0 0 0 -0 -0 0 0 0 0 0 0 0 0 0 0 0 0 0 0 0 0 -0 -0 -0 -0 -0 -0 0 -0 -0
0 0 0 0 0 0 0 0 0 0 0 0 0 0 0 0 0 0 0 -0 -0 -0 0 -0 0 0 0 0 0 0 0 0 0 0 0 0 0 0 0 -0 0 0 -0 0 0 -0 -0
0 0 0 0 0 0 0 0 0 0 0 0 0 0 0 0 0 0 -0 -0 -0 -0 -0 -0 0 0 0 0 0 0 0 0 0 0 0 0 0 0 0 0 0 0 0 0 0 -0 0
0 0 0 0 0 0 0 0 0 0 0 0 0 0 0 -0 -0 -0 -0 -0 -0 -0 -0 -0 -0 0 0 0 0 0 0 0 0 0 0 0 0 0 0 0 0 0 0 0 0 0 0
0 0 0 0 0 0 0 0 0 0 0 0 0 0 0 -0 -0 -0 -0 -0 -0 -0 -0 -0 0 0 0 0 0 0 0 0 0 0 0 0 0 0 0 0 0 0 0 0 0 0 0
0 0 0 0 0 0 0 0 0 0 0 0 0 0 0 -0 0 0 -0 0 0 0 -0 0 0 0 0 0 0 0 0 -0 0 0 -0 0 0 0 0 0 0 0 0 0 0 0 0
0 0 0 0 0 0 0 0 0 0 0 0 0 0 0 -0 -0 -0 -0 -0 -0 -0 -0 0 0 0 0 0 0 -0 -0 -0 0 -0 0 0 0 0 0 0 0 0 0 0 0 0 0
0 0 0 0 0 0 0 0 0 0 0 0 0 0 0 -0 -0 -0 -0 -0 -0 -0 -0 0 0 -0 -0 -0 -0 -0 -0 -0 0 0 0 0 0 0 0 0 0 0 0 0 0 0 0
Wind_Speed_500mb
39 38 36 35 34 29 27 24 21 24 24 25 25 26 24 23 22 20 18 14 10 3 1 2 4 20 26 12 2 14 24 23 19 18 21 21 25 26 28 24 16 25 29 8 9 9 13
40 39 34 36 37 34 22 24 18 20 23 23 24 24 22 21 20 16 14 8 2 3 4 8 15 22 7 17 7 20 30 21 17 21 23 21 21 15 25 24 21 20 18 18 10 4 6
43 40 36 39 39 35 25 20 18 18 21 22 22 22 20 19 15 13 9 4 6 3 6 8 12 11 10 6 15 19 26 13 9 11 21 19 15 16 11 21 6 18 21 20 17 7 1
42 36 39 41 40 31 22 18 19 19 21 20 21 20 16 17 13 9 8 12 17 9 9 11 12 7 2 7 12 23 19 6 9 5 6 9 11 15 13 11 23 23 19 23 20 3 9
39 36 39 40 39 30 19 19 18 18 20 21 17 20 16 14 11 10 16 26 19 19 21 10 6 3 7 9 20 21 19 5 5 9 5 7 8 12 15 21 21 20 20 3 6 12 12
34 38 38 40 37 26 22 18 19 18 19 20 18 16 16 13 10 15 19 21 6 9 5 8 6 7 12 17 17 23 18 5 4 11 13 13 15 21 4 18 20 28 23 19 15 17 22
35 36 37 41 34 24 23 19 20 17 17 19 18 16 16 11 13 24 30 25 11 12 30 29 13 6 10 19 11 26 22 1 9 15 16 5 16 19 18 16 20 21 22 22 14 16 20
34 35 36 37 28 24 22 21 18 17 16 17 16 16 16 10 21 34 34 16 4 25 18 14 24 18 15 18 9 38 27 6 11 11 5 16 14 12 15 14 22 23 25 26 18 8 11
33 33 35 31 28 25 24 22 17 16 15 17 15 15 12 17 26 38 22 12 25 24 5 11 13 24 29 18 23 34 27 11 10 4 7 20 17 9 11 20 24 26 19 20 26 28 18
34 33 37 29 26 26 23 20 17 14 14 15 14 13 14 20 17 28 21 13 35 10 8 11 11 16 31 1 12 31 25 8 3 6 9 12 14 14 15 15 23 26 22 24 28 24 21
36 35 38 27 25 29 23 21 16 13 12 12 9 12 19 30 11 23 29 22 20 6 4 6 10 7 26 16 8 35 22 17 22 10 10 14 13 20 17 18 21 24 33 32 25 26 27
38 37 37 26 28 31 25 20 17 13 12 8 6 12 17 13 15 28 33 29 16 5 3 8 5 5 13 29 27 26 16 13 6 9 19 16 7 16 19 31 5 25 37 32 18 24 18
40 39 36 30 32 33 26 22 18 15 13 8 5 11 17 23 13 30 39 26 6 6 3 11 8 7 22 16 17 14 31 30 18 7 6 11 23 6 37 28 17 29 26 16 7 7 9
42 39 36 35 34 31 28 23 20 18 14 11 10 10 16 21 38 38 30 7 6 0 3 7 8 15 8 5 11 21 8 18 32 22 3 12 7 27 26 21 24 14 22 8 9 10 1
42 38 37 38 36 33 30 26 22 23 21 21 19 18 13 26 31 28 10 10 4 7 10 12 14 7 13 11 2 6 25 15 20 26 12 12 7 12 15 15 24 20 19 10 11 12 2
43 39 40 42 39 36 32 27 25 29 28 21 13 10 11 24 23 13 8 5 7 6 6 5 0 6 6 5 6 5 9 18 10 16 12 5 5 11 9 7 18 19 20 7 7 8 3
45 41 43 44 40 36 33 29 31 37 27 17 12 8 7 23 20 7 5 9 17 11 5 8 6 8 7 6 7 6 9 14 17 12 10 4 8 5 5 18 20 13 10 12 5 4 7
45 44 47 46 42 38 34 32 34 42 32 15 6 6 13 23 9 9 10 15 19 17 12 9 11 13 9 3 9 7 12 13 19 13 9 9 7 8 16 12 16 26 13 8 6 8 5
45 47 51 48 44 40 37 35 35 43 38 14 6 13 9 8 7 12 22 23 18 9 9 4 8 7 2 5 6 11 9 9 16 13 15 10 1 5 13 11 17 13 14 3 4 3 13
45 48 52 49 45 42 38 35 37 44 40 20 9 7 8 1 10 30 29 18 13 16 19 19 14 11 10 11 9 12 14 9 11 16 7 13 5 11 16 16 10 7 12 3 0 6 11
52 57 57 51 46 42 39 36 39 43 38 16 2 3 5 14 20 20 16 16 23 10 9 4 8 3 4 6 10 9 10 11 6 9 1 10 9 18 25 26 14 14 22 22 24 14 10
54 58 58 55 49 44 40 40 42 41 37 10 11 13 26 33 31 26 6 12 19 18 10 8 13 8 5 16 11 9 8 8 11 10 5 5 7 18 22 27 32 22 24 24 26 21 19
55 57 55 53 49 45 42 44 45 44 33 8 10 34 17 14 12 10 7 15 16 20 16 21 16 18 21 18 23 25 25 21 16 13 9 4 14 16 13 1 7 14 17 22 22 19 20
57 58 55 52 50 45 43 46 46 45 28 10 28 21 19 11 12 15 28 30 19 14 22 15 9 14 13 21 24 20 16 20 16 19 14 9 13 7 11 8 3 5 11 16 16 21 19
60 59 56 52 50 48 46 47 48 42 21 24 37 26 28 25 42 38 38 41 42 39 34 26 21 19 15 6 10 10 9 7 13 13 15 9 8 4 7 6 11 7 8 8 11 17 25
60 57 55 52 51 48 47 49 49 41 27 43 28 32 48 35 19 31 32 24 20 16 19 19 16 14 3 4 1 8 9 12 9 9 15 8 7 4 3 7 6 7 9 6 9 5 32
58 56 53 51 49 49 47 49 49 36 49 31 41 46 30 45 15 3 14 11 7 10 14 18 10 7 4 7 11 10 11 8 10 12 12 6 6 9 6 9 9 13 10 14 8 10 30
57 54 53 49 49 49 51 54 51 53 37 30 52 51 40 44 34 25 23 19 8 3 6 11 9 4 4 12 9 7 10 6 8 14 9 13 9 9 8 7 10 27 6 4 8 16 23
56 55 51 47 47 52 57 59 54 51 35 42 56 46 69 51 52 43 43 26 16 13 13 11 14 10 8 6 6 6 12 7 13 8 21 8 9 6 12 7 14 11 4 5 8 19 21
Wind_Direction_500mb
297 302 299 300 306 304 291 273 263 261 264 272 277 283 290 292 294 302 300 305 307 285 331 53 136 160 163 216 132 335 324 311 301 262 255 251 254 255 268 276 279 249 270 315 316 292 336
294 295 291 297 303 303 289 272 250 253 264 270 277 283 288 288 292 295 291 287 219 160 121 132 135 149 196 247 307 330 331 313 282 250 255 247 253 285 288 284 281 321 292 288 269 150 66
288 290 285 294 300 300 289 258 244 257 264 271 278 281 286 283 290 280 264 181 142 178 163 130 157 173 245 65 326 321 335 326 287 245 242 235 248 248 317 261 280 275 260 213 210 16 192
283 279 282 293 296 290 272 238 247 257 264 269 278 277 278 280 280 255 202 142 110 98 147 153 158 137 46 336 345 340 351 352 335 221 197 209 226 269 269 305 255 253 239 258 119 323 44
275 272 282 291 293 283 250 238 248 257 269 269 270 275 273 270 262 224 171 151 120 86 76 128 83 236 99 323 348 356 353 14 67 134 160 176 216 264 230 243 246 193 289 330 306 83 323
264 274 283 289 287 265 238 238 251 257 265 271 268 265 271 263 225 188 167 167 168 27 71 66 28 224 45 349 355 352 0 348 165 155 173 206 221 238 345 337 340 335 334 319 300 70 346
264 278 287 288 277 243 235 237 246 254 261 265 267 263 261 245 198 170 150 135 153 113 76 67 40 357 26 1 20 8 1 301 187 232 251 251 265 18 354 335 327 314 302 300 316 68 314
264 279 284 287 258 230 232 240 240 250 253 258 268 264 255 227 185 174 173 219 291 135 100 68 44 57 26 10 24 12 16 246 221 237 227 220 54 354 314 323 311 295 292 288 325 128 308
260 280 287 281 248 224 229 235 233 240 250 258 255 260 238 209 182 179 188 216 158 154 170 62 51 35 4 43 39 11 16 3 9 87 26 31 38 333 312 310 335 307 295 341 315 310 249
263 282 286 267 240 228 227 231 226 233 247 253 251 241 210 176 168 185 192 188 164 188 204 30 18 19 6 51 51 19 16 344 54 52 40 59 24 340 308 329 345 305 17 321 302 290 286
261 275 281 252 230 232 224 219 218 231 245 243 261 203 183 167 177 167 202 183 181 258 231 36 50 34 37 73 344 15 16 72 47 44 251 72 20 5 354 346 321 303 326 293 282 276 266
253 271 278 235 223 232 218 210 212 220 222 224 242 185 167 174 176 198 188 184 182 232 191 123 65 8 101 64 52 44 62 52 34 68 69 75 70 41 352 310 310 302 303 287 264 245 226
249 268 267 230 223 226 212 206 205 204 194 203 163 180 179 164 181 158 150 152 196 113 173 129 92 103 71 63 59 39 66 56 36 295 52 153 62 59 6 347 335 333 325 305 228 199 228
247 263 247 227 222 219 211 202 200 189 178 169 132 134 166 184 153 149 149 185 91 223 77 110 135 103 85 348 70 47 59 56 34 358 33 350 189 13 0 4 328 347 351 9 292 333 27
242 253 231 218 217 211 208 197 191 176 157 137 121 105 110 150 147 146 190 64 118 129 117 149 154 187 112 89 9 146 72 40 33 21 35 0 86 358 22 341 9 348 12 9 309 313 344
237 242 219 212 211 204 205 192 188 174 159 144 105 116 109 148 141 108 74 125 112 73 120 229 194 308 114 61 190 144 68 29 14 27 346 44 321 21 12 347 37 25 14 13 347 330 147
234 228 211 205 206 200 199 189 187 176 163 154 139 172 138 134 123 125 109 88 112 92 74 358 115 117 88 112 57 76 54 86 22 12 323 322 250 54 232 24 14 15 24 355 92 4 330
230 214 207 201 198 196 193 192 188 186 179 168 194 160 153 139 164 126 115 123 112 99 81 83 62 70 67 121 79 94 92 43 10 333 10 38 316 62 70 65 59 64 15 26 332 12 12
223 205 201 198 193 193 194 194 191 188 185 166 152 100 122 152 146 123 124 103 84 113 36 94 96 42 157 105 116 97 108 62 15 15 359 4 116 226 169 166 66 38 347 315 126 252 19
211 202 197 194 191 192 194 192 188 181 181 162 175 119 99 80 97 141 130 121 114 82 75 76 104 124 133 88 70 135 122 81 26 29 348 284 61 35 47 54 27 350 337 55 31 60 86
203 193 192 189 190 191 193 188 180 175 177 154 155 113 112 141 126 110 97 128 133 120 86 62 96 102 60 124 111 108 104 138 94 47 220 304 113 93 83 96 74 57 55 80 86 88 73
201 192 191 189 188 189 189 184 175 171 169 151 155 145 103 105 120 121 97 122 124 103 13 64 115 107 90 81 18 129 118 24 46 25 22 298 137 122 87 107 87 55 51 49 36 67 103
197 190 189 187 186 187 185 180 175 172 165 172 141 127 117 148 136 126 79 128 117 124 44 92 100 102 84 64 73 80 81 79 64 19 5 311 160 173 143 271 317 66 4 49 69 42 26
190 187 187 185 186 185 184 179 177 176 172 148 141 133 117 102 88 97 111 109 102 81 124 97 54 99 97 112 107 100 101 90 67 41 16 312 218 222 148 159 141 98 7 336 61 59 22
185 186 185 185 183 185 182 180 178 176 169 148 138 121 106 102 106 106 111 107 100 96 93 84 65 94 131 141 169 164 171 183 109 55 16 13 337 233 196 77 116 135 20 343 2 50 27
182 184 185 182 185 183 179 177 177 173 171 156 149 120 128 111 76 116 115 121 122 110 93 97 77 109 105 262 73 19 41 335 33 342 358 74 6 329 295 144 111 41 348 275 268 94 18
180 182 181 182 184 180 179 175 171 169 162 159 144 138 115 106 76 70 99 100 70 90 91 120 113 112 287 47 54 42 69 340 27 21 357 10 29 44 335 99 94 5 332 243 276 15 348
179 179 179 181 181 177 175 170 163 157 158 167 139 132 126 101 79 84 82 86 89 59 111 128 165 95 99 66 75 70 62 75 74 45 16 32 323 34 328 90 97 7 183 346 25 347 336
174 175 175 174 174 173 170 162 159 158 161 171 126 127 126 99 111 83 69 59 100 82 89 80 93 83 58 112 136 122 95 49 49 64 26 44 12 355 13 43 356 5 23 352 328 336 339
Wind_Speed_850mb
39 38 36 35 34 29 27 24 21 24 24 25 25 26 24 23 22 20 18 14 10 3 1 2 4 20 26 12 2 14 24 23 19 18 21 21 25 26 28 24 16 25 29 8 9 9 13
40 39 34 36 37 34 22 24 18 20 23 23 24 24 22 21 20 16 14 8 2 3 4 8 15 22 7 17 7 20 30 21 17 21 23 21 21 15 25 24 21 20 18 18 10 4 6
43 40 36 39 39 35 25 20 18 18 21 22 22 22 20 19 15 13 9 4 6 3 6 8 12 11 10 6 15 19 26 13 9 11 21 19 15 16 11 21 6 18 21 20 17 7 1
42 36 39 41 40 31 22 18 19 19 21 20 21 20 16 17 13 9 8 12 17 9 9 11 12 7 2 7 12 23 19 6 9 5 6 9 11 15 13 11 23 23 19 23 20 3 9
39 36 39 40 39 30 19 19 18 18 20 21 17 20 16 14 11 10 16 26 19 19 21 10 6 3 7 9 20 21 19 5 5 9 5 7 8 12 15 21 21 20 20 3 6 12 12
34 38 38 40 37 26 22 18 19 18 19 20 18 16 16 13 10 15 19 21 6 9 5 8 6 7 12 17 17 23 18 5 4 11 13 13 15 21 4 18 20 28 23 19 15 17 22
35 36 37 41 34 24 23 19 20 17 17 19 18 16 16 11 13 24 30 25 11 12 30 29 13 6 10 19 11 26 22 1 9 15 16 5 16 19 18 16 20 21 22 22 14 16 20
34 35 36 37 28 24 22 21 18 17 16 17 16 16 16 10 21 34 34 16 4 25 18 14 24 18 15 18 9 38 27 6 11 11 5 16 14 12 15 14 22 23 25 26 18 8 11
33 33 35 31 28 25 24 22 17 16 15 17 15 15 12 17 26 38 22 12 25 24 5 11 13 24 29 18 23 34 27 11 10 4 7 20 17 9 11 20 24 26 19 20 26 28 18
34 33 37 29 26 26 23 20 17 14 14 15 14 13 14 20 17 28 21 13 35 10 8 11 11 16 31 1 12 31 25 8 3 6 9 12 14 14 15 15 23 26 22 24 28 24 21
36 35 38 27 25 29 23 21 16 13 12 12 9 12 19 30 11 23 29 22 20 6 4 6 10 7 26 16 8 35 22 17 22 10 10 14 13 20 17 18 21 24 33 32 25 26 27
38 37 37 26 28 31 25 20 17 13 12 8 6 12 17 13 15 28 33 29 16 5 3 8 5 5 13 29 27 26 16 13 6 9 19 16 7 16 19 31 5 25 37 32 18 24 18
40 39 36 30 32 33 26 22 18 15 13 8 5 11 17 23 13 30 39 26 6 6 3 11 8 7 22 16 17 14 31 30 18 7 6 11 23 6 37 28 17 29 26 16 7 7 9
42 39 36 35 34 31 28 23 20 18 14 11 10 10 16 21 38 38 30 7 6 0 3 7 8 15 8 5 11 21 8 18 32 22 3 12 7 27 26 21 24 14 22 8 9 10 1
42 38 37 38 36 33 30 26 22 23 21 21 19 18 13 26 31 28 10 10 4 7 10 12 14 7 13 11 2 6 25 15 20 26 12 12 7 12 15 15 24 20 19 10 11 12 2
43 39 40 42 39 36 32 27 25 29 28 21 13 10 11 24 23 13 8 5 7 6 6 5 0 6 6 5 6 5 9 18 10 16 12 5 5 11 9 7 18 19 20 7 7 8 3
45 41 43 44 40 36 33 29 31 37 27 17 12 8 7 23 20 7 5 9 17 11 5 8 6 8 7 6 7 6 9 14 17 12 10 4 8 5 5 18 20 13 10 12 5 4 7
45 44 47 46 42 38 34 32 34 42 32 15 6 6 13 23 9 9 10 15 19 17 12 9 11 13 9 3 9 7 12 13 19 13 9 9 7 8 16 12 16 26 13 8 6 8 5
45 47 51 48 44 40 37 35 35 43 38 14 6 13 9 8 7 12 22 23 18 9 9 4 8 7 2 5 6 11 9 9 16 13 15 10 1 5 13 11 17 13 14 3 4 3 13
45 48 52 49 45 42 38 35 37 44 40 20 9 7 8 1 10 30 29 18 13 16 19 19 14 11 10 11 9 12 14 9 11 16 7 13 5 11 16 16 10 7 12 3 0 6 11
52 57 57 51 46 42 39 36 39 43 38 16 2 3 5 14 20 20 16 16 23 10 9 4 8 3 4 6 10 9 10 11 6 9 1 10 9 18 25 26 14 14 22 22 24 14 10
54 58 58 55 49 44 40 40 42 41 37 10 11 13 26 33 31 26 6 12 19 18 10 8 13 8 5 16 11 9 8 8 11 10 5 5 7 18 22 27 32 22 24 24 26 21 19
55 57 55 53 49 45 42 44 45 44 33 8 10 34 17 14 12 10 7 15 16 20 16 21 16 18 21 18 23 25 25 21 16 13 9 4 14 16 13 1 7 14 17 22 22 19 20
57 58 55 52 50 45 43 46 46 45 28 10 28 21 19 11 12 15 28 30 19 14 22 15 9 14 13 21 24 20 16 20 16 19 14 9 13 7 11 8 3 5 11 16 16 21 19
60 59 56 52 50 48 46 47 48 42 21 24 37 26 28 25 42 38 38 41 42 39 34 26 21 19 15 6 10 10 9 7 13 13 15 9 8 4 7 6 11 7 8 8 11 17 25
60 57 55 52 51 48 47 49 49 41 27 43 28 32 48 35 19 31 32 24 20 16 19 19 16 14 3 4 1 8 9 12 9 9 15 8 7 4 3 7 6 7 9 6 9 5 32
58 56 53 51 49 49 47 49 49 36 49 31 41 46 30 45 15 3 14 11 7 10 14 18 10 7 4 7 11 10 11 8 10 12 12 6 6 9 6 9 9 13 10 14 8 10 30
57 54 53 49 49 49 51 54 51 53 37 30 52 51 40 44 34 25 23 19 8 3 6 11 9 4 4 12 9 7 10 6 8 14 9 13 9 9 8 7 10 27 6 4 8 16 23
56 55 51 47 47 52 57 59 54 51 35 42 56 46 69 51 52 43 43 26 16 13 13 11 14 10 8 6 6 6 12 7 13 8 21 8 9 6 12 7 14 11 4 5 8 19 21
Wind_Direction_850mb
297 302 299 300 306 304 291 273 263 261 264 272 277 283 290 292 294 302 300 305 307 285 331 53 136 160 163 216 132 335 324 311 301 262 255 251 254 255 268 276 279 249 270 315 316 292 336
294 295 291 297 303 303 289 272 250 253 264 270 277 283 288 288 292 295 291 287 219 160 121 132 135 149 196 247 307 330 331 313 282 250 255 247 253 285 288 284 281 321 292 288 269 150 66
288 290 285 294 300 300 289 258 244 257 264 271 278 281 286 283 290 280 264 181 142 178 163 130 157 173 245 65 326 321 335 326 287 245 242 235 248 248 317 261 280 275 260 213 210 16 192
283 279 282 293 296 290 272 238 247 257 264 269 278 277 278 280 280 255 202 142 110 98 147 153 158 137 46 336 345 340 351 352 335 221 197 209 226 269 269 305 255 253 239 258 119 323 44
275 272 282 291 293 283 250 238 248 257 269 269 270 275 273 270 262 224 171 151 120 86 76 128 83 236 99 323 348 356 353 14 67 134 160 176 216 264 230 243 246 193 289 330 306 83 323
264 274 283 289 287 265 238 238 251 257 265 271 268 265 271 263 225 188 167 167 168 27 71 66 28 224 45 349 355 352 0 348 165 155 173 206 221 238 345 337 340 335 334 319 300 70 346
264 278 287 288 277 243 235 237 246 254 261 265 267 263 261 245 198 170 150 135 153 113 76 67 40 357 26 1 20 8 1 301 187 232 251 251 265 18 354 335 327 314 302 300 316 68 314
264 279 284 287 258 230 232 240 240 250 253 258 268 264 255 227 185 174 173 219 291 135 100 68 44 57 26 10 24 12 16 246 221 237 227 220 54 354 314 323 311 295 292 288 325 128 308
260 280 287 281 248 224 229 235 233 240 250 258 255 260 238 209 182 179 188 216 158 154 170 62 51 35 4 43 39 11 16 3 9 87 26 31 38 333 312 310 335 307 295 341 315 310 249
263 282 286 267 240 228 227 231 226 233 247 253 251 241 210 176 168 185 192 188 164 188 204 30 18 19 6 51 51 19 16 344 54 52 40 59 24 340 308 329 345 305 17 321 302 290 286
261 275 281 252 230 232 224 219 218 231 245 243 261 203 183 167 177 167 202 183 181 258 231 36 50 34 37 73 344 15 16 72 47 44 251 72 20 5 354 346 321 303 326 293 282 276 266
253 271 278 235 223 232 218 210 212 220 222 224 242 185 167 174 176 198 188 184 182 232 191 123 65 8 101 64 52 44 62 52 34 68 69 75 70 41 352 310 310 302 303 287 264 245 226
249 268 267 230 223 226 212 206 205 204 194 203 163 180 179 164 181 158 150 152 196 113 173 129 92 103 71 63 59 39 66 56 36 295 52 153 62 59 6 347 335 333 325 305 228 199 228
247 263 247 227 222 219 211 202 200 189 178 169 132 134 166 184 153 149 149 185 91 223 77 110 135 103 85 348 70 47 59 56 34 358 33 350 189 13 0 4 328 347 351 9 292 333 27
242 253 231 218 217 211 208 197 191 176 157 137 121 105 110 150 147 146 190 64 118 129 117 149 154 187 112 89 9 146 72 40 33 21 35 0 86 358 22 341 9 348 12 9 309 313 344
237 242 219 212 211 204 205 192 188 174 159 144 105 116 109 148 141 108 74 125 112 73 120 229 194 308 114 61 190 144 68 29 14 27 346 44 321 21 12 347 37 25 14 13 347 330 147
234 228 211 205 206 200 199 189 187 176 163 154 139 172 138 134 123 125 109 88 112 92 74 358 115 117 88 112 57 76 54 86 22 12 323 322 250 54 232 24 14 15 24 355 92 4 330
230 214 207 201 198 196 193 192 188 186 179 168 194 160 153 139 164 126 115 123 112 99 81 83 62 70 67 121 79 94 92 43 10 333 10 38 316 62 70 65 59 64 15 26 332 12 12
223 205 201 198 193 193 194 194 191 188 185 166 152 100 122 152 146 123 124 103 84 113 36 94 96 42 157 105 116 97 108 62 15 15 359 4 116 226 169 166 66 38 347 315 126 252 19
211 202 197 194 191 192 194 192 188 181 181 162 175 119 99 80 97 141 130 121 114 82 75 76 104 124 133 88 70 135 122 81 26 29 348 284 61 35 47 54 27 350 337 55 31 60 86
203 193 192 189 190 191 193 188 180 175 177 154 155 113 112 141 126 110 97 128 133 120 86 62 96 102 60 124 111 108 104 138 94 47 220 304 113 93 83 96 74 57 55 80 86 88 73
201 192 191 189 188 189 189 184 175 171 169 151 155 145 103 105 120 121 97 122 124 103 13 64 115 107 90 81 18 129 118 24 46 25 22 298 137 122 87 107 87 55 51 49 36 67 103
197 190 189 187 186 187 185 180 175 172 165 172 141 127 117 148 136 126 79 128 117 124 44 92 100 102 84 64 73 80 81 79 64 19 5 311 160 173 143 271 317 66 4 49 69 42 26
190 187 187 185 186 185 184 179 177 176 172 148 141 133 117 102 88 97 111 109 102 81 124 97 54 99 97 112 107 100 101 90 67 41 16 312 218 222 148 159 141 98 7 336 61 59 22
185 186 185 185 183 185 182 180 178 176 169 148 138 121 106 102 106 106 111 107 100 96 93 84 65 94 131 141 169 164 171 183 109 55 16 13 337 233 196 77 116 135 20 343 2 50 27
182 184 185 182 185 183 179 177 177 173 171 156 149 120 128 111 76 116 115 121 122 110 93 97 77 109 105 262 73 19 41 335 33 342 358 74 6 329 295 144 111 41 348 275 268 94 18
180 182 181 182 184 180 179 175 171 169 162 159 144 138 115 106 76 70 99 100 70 90 91 120 113 112 287 47 54 42 69 340 27 21 357 10 29 44 335 99 94 5 332 243 276 15 348
179 179 179 181 181 177 175 170 163 157 158 167 139 132 126 101 79 84 82 86 89 59 111 128 165 95 99 66 75 70 62 75 74 45 16 32 323 34 328 90 97 7 183 346 25 347 336
174 175 175 174 174 173 170 162 159 158 161 171 126 127 126 99 111 83 69 59 100 82 89 80 93 83 58 112 136 122 95 49 49 64 26 44 12 355 13 43 356 5 23 352 328 336 339